Flag for Switzerland Weather past 2 weeks in Cham, Zug, Switzerland

Now
42 °F

Quite cool.


Feels Like: 42 °F
Forecast: 32 / 43 °F
Wind: 2 mph from Southwest

Location: Zurich Town / Ville.

Current Time: Mar 3, 2015 at 12:16:03 PM

Latest Report: Mar 3, 2015 at 11:00 AM


Visibility: N/A

Pressure: 30.27 "Hg

Humidity: 59%

Dew point: 29 °F

Location of ChamLocation

Historic Weather in Cham — Graph

°F

Cham temperature yesterday

Maximum temperature yesterday: 49 °F (at 5:00 AM)
Minimum temperature yesterday: 39 °F (at 11:00 PM)
Average temperature yesterday: 44 °F

Past Weeks' High & Low Weather Summary

 TemperatureHumidityPressure
High50 °F (Feb 20, 4:00 PM)100% (Feb 21, 10:00 PM)30.75 "Hg (Feb 21, 10:00 PM)
Low28 °F (Feb 17, 12:00 AM)35% (Feb 20, 4:00 PM)29.58 "Hg (Feb 21, 12:00 PM)
Average35 °F81%30.09 "Hg
* Reported Feb 16 11:00 AM — Mar 3 11:00 AM, Cham, Weather by CustomWeather, © 2015

Note: Actual official high and low records may vary slightly from our data, if they occured in-between our weather recording intervals... More about our weather records

Advertising

Cham weather history for previous 24 hours

 ConditionsComfort  
Time TempWeatherWind HumidityBarometerVisibility
11:00 AM
Tue, Mar 3
42 °FQuite cool.2 mph59%30.27 "HgN/A
10:00 AM41 °FQuite cool.3 mph67%30.28 "HgN/A
9:00 AM38 °FChilly.1 mph68%30.29 "HgN/A
8:00 AM36 °FChilly.2 mph70%30.29 "HgN/A
7:00 AM34 °FChilly.2 mph76%30.30 "HgN/A
6:00 AM36 °FChilly.3 mph67%30.29 "HgN/A
5:00 AM36 °FChilly.6 mph64%30.28 "HgN/A
4:00 AM37 °FChilly.5 mph64%30.27 "HgN/A
3:00 AM38 °FChilly.7 mph61%30.27 "HgN/A
2:00 AM38 °FChilly.5 mph62%30.27 "HgN/A
1:00 AM38 °FChilly.6 mph65%30.26 "HgN/A
12:00 AM38 °FChilly.8 mph62%30.25 "HgN/A
11:00 PM
Mon, Mar 2
39 °FChilly.8 mph61%30.23 "HgN/A
9:00 PM40 °FChilly.14 mph73%30.14 "HgN/A
8:00 PM40 °FQuite cool.14 mph77%30.09 "HgN/A
7:00 PM42 °FPassing clouds.10 mph70%30.03 "HgN/A
6:00 PM42 °FQuite cool.16 mph73%30.01 "HgN/A
5:00 PM43 °FQuite cool.15 mph76%29.96 "HgN/A
4:00 PM43 °FQuite cool.12 mph84%29.95 "HgN/A
3:00 PM42 °FQuite cool.15 mph91%29.93 "HgN/A
2:00 PM43 °FQuite cool.13 mph84%29.93 "HgN/A
1:00 PM41 °FOvercast.10 mph90%29.93 "HgN/A
12:00 PM39 °FChilly.12 mph94%29.92 "HgN/A
Weather by CustomWeather, © 2015

See weather overviewHow to use our weather pages